Precipitable_Water
0.75 0.77 0.72 0.66 0.71 0.68 0.65 0.60 0.63 0.61 0.59 0.63 0.64 0.63 0.62 0.64 0.63 0.58 0.63 0.61 0.60 0.55 0.51 0.49 0.48 0.46 0.46 0.49 0.54 0.53 0.48 0.48 0.48 0.49 0.46 0.44 0.42 0.44 0.42 0.42 0.44 0.49
0.75 0.77 0.73 0.71 0.69 0.75 0.75 0.68 0.67 0.68 0.64 0.64 0.67 0.67 0.67 0.67 0.67 0.61 0.64 0.63 0.64 0.61 0.57 0.54 0.51 0.50 0.51 0.50 0.48 0.51 0.48 0.47 0.45 0.45 0.45 0.47 0.46 0.44 0.41 0.40 0.40 0.47
0.79 0.78 0.77 0.75 0.70 0.73 0.78 0.77 0.74 0.75 0.71 0.69 0.68 0.70 0.69 0.69 0.67 0.64 0.66 0.66 0.66 0.65 0.63 0.60 0.58 0.55 0.54 0.54 0.47 0.54 0.52 0.47 0.48 0.48 0.51 0.50 0.50 0.44 0.45 0.45 0.40 0.43
0.82 0.82 0.82 0.82 0.79 0.77 0.82 0.81 0.80 0.78 0.81 0.77 0.70 0.72 0.74 0.73 0.72 0.67 0.67 0.67 0.67 0.67 0.66 0.63 0.61 0.59 0.59 0.58 0.53 0.57 0.56 0.52 0.53 0.50 0.48 0.45 0.48 0.48 0.46 0.42 0.40 0.39
0.83 0.86 0.88 0.87 0.88 0.87 0.83 0.84 0.84 0.83 0.81 0.84 0.82 0.78 0.77 0.77 0.77 0.73 0.70 0.69 0.69 0.69 0.69 0.67 0.65 0.62 0.61 0.61 0.55 0.60 0.57 0.59 0.59 0.52 0.54 0.51 0.50 0.48 0.46 0.47 0.41 0.43
0.88 0.91 0.92 0.91 0.92 0.89 0.88 0.88 0.89 0.87 0.86 0.85 0.87 0.88 0.86 0.86 0.84 0.80 0.76 0.74 0.73 0.72 0.72 0.71 0.69 0.66 0.64 0.64 0.58 0.62 0.58 0.59 0.59 0.54 0.58 0.57 0.54 0.51 0.50 0.48 0.44 0.44
0.95 0.97 0.97 0.96 0.92 0.90 0.90 0.91 0.91 0.90 0.89 0.90 0.91 0.92 0.92 0.91 0.91 0.90 0.86 0.83 0.80 0.76 0.76 0.75 0.73 0.69 0.67 0.66 0.62 0.62 0.62 0.61 0.62 0.57 0.58 0.58 0.58 0.55 0.55 0.53 0.49 0.53
1.00 1.02 1.02 1.00 0.96 0.94 0.90 0.88 0.90 0.91 0.90 0.91 0.94 0.96 0.96 0.95 0.95 0.97 0.95 0.92 0.88 0.84 0.81 0.82 0.81 0.77 0.74 0.70 0.67 0.64 0.65 0.62 0.64 0.61 0.56 0.60 0.61 0.59 0.56 0.55 0.55 0.48
0.99 0.98 1.00 1.00 0.97 0.97 0.97 0.99 1.00 0.98 0.96 0.95 0.98 0.96 0.97 0.98 0.97 0.97 0.98 0.96 0.93 0.92 0.90 0.88 0.88 0.86 0.83 0.79 0.75 0.72 0.70 0.67 0.68 0.65 0.60 0.60 0.61 0.62 0.61 0.61 0.59 0.53
1.00 1.00 1.01 0.99 0.97 0.98 0.99 1.00 1.01 1.02 1.00 0.99 1.01 1.00 0.97 1.01 1.01 0.97 0.96 0.97 0.95 0.95 0.95 0.94 0.91 0.90 0.88 0.86 0.82 0.78 0.76 0.75 0.75 0.71 0.67 0.64 0.66 0.66 0.63 0.65 0.64 0.61
0.97 1.01 0.99 0.98 0.97 0.96 0.97 1.03 1.05 1.08 1.06 1.03 1.02 1.02 1.04 1.07 1.06 1.02 0.97 0.95 0.95 0.94 0.96 0.96 0.95 0.94 0.91 0.88 0.87 0.87 0.85 0.84 0.84 0.83 0.79 0.76 0.76 0.75 0.71 0.70 0.70 0.65
1.07 1.08 1.04 1.01 1.01 1.02 1.00 1.00 1.04 1.10 1.09 1.07 1.04 1.02 1.03 1.12 1.10 1.06 1.06 1.04 1.01 1.00 0.98 0.98 0.99 0.98 0.97 0.94 0.91 0.90 0.89 0.88 0.89 0.89 0.88 0.86 0.84 0.81 0.74 0.71 0.72 0.71
0.99 1.00 1.00 1.00 1.02 1.03 1.03 1.04 1.05 1.06 1.13 1.12 1.09 1.02 1.00 1.02 1.07 1.11 1.15 1.14 1.15 1.13 1.08 1.05 1.02 1.02 1.01 0.99 0.96 0.93 0.90 0.89 0.89 0.89 0.89 0.88 0.87 0.85 0.81 0.75 0.72 0.70
0.86 0.85 0.90 0.95 0.98 0.99 1.02 1.05 1.03 1.07 1.10 1.13 1.12 1.02 1.01 1.04 1.04 1.01 1.03 1.03 1.01 1.01 1.03 1.09 1.11 1.05 1.06 1.04 1.00 0.96 0.93 0.90 0.89 0.89 0.88 0.88 0.87 0.85 0.83 0.79 0.75 0.73
0.52 0.59 0.65 0.67 0.67 0.74 0.81 0.83 0.88 0.92 0.95 0.99 0.99 0.99 1.01 1.02 1.05 1.04 0.99 0.95 0.96 0.96 0.97 1.02 1.08 1.09 1.07 1.05 1.03 1.00 0.96 0.92 0.89 0.87 0.87 0.87 0.87 0.86 0.83 0.80 0.77 0.74
0.44 0.44 0.44 0.48 0.52 0.57 0.66 0.75 0.76 0.78 0.80 0.79 0.77 0.80 0.84 0.88 0.91 0.95 0.95 0.93 0.94 0.95 0.95 0.97 0.95 0.96 1.02 1.05 1.03 0.99 0.96 0.95 0.94 0.91 0.88 0.84 0.83 0.82 0.81 0.79 0.77 0.73
0.46 0.46 0.48 0.48 0.49 0.50 0.49 0.49 0.55 0.69 0.74 0.71 0.72 0.74 0.78 0.78 0.77 0.76 0.76 0.78 0.82 0.85 0.89 0.94 0.95 0.95 0.93 0.96 0.96 0.94 0.93 0.92 0.89 0.86 0.85 0.83 0.82 0.80 0.78 0.77 0.75 0.72
0.49 0.48 0.46 0.45 0.46 0.47 0.48 0.51 0.52 0.51 0.52 0.60 0.71 0.69 0.70 0.74 0.72 0.68 0.69 0.71 0.73 0.76 0.77 0.79 0.85 0.84 0.84 0.85 0.87 0.88 0.87 0.86 0.84 0.81 0.79 0.79 0.78 0.78 0.76 0.75 0.73 0.71
0.46 0.46 0.47 0.48 0.49 0.48 0.48 0.49 0.50 0.51 0.52 0.50 0.52 0.61 0.68 0.69 0.69 0.68 0.68 0.69 0.69 0.68 0.69 0.73 0.74 0.76 0.78 0.79 0.79 0.78 0.78 0.80 0.80 0.79 0.76 0.74 0.72 0.71 0.70 0.69 0.68 0.68
0.43 0.44 0.46 0.47 0.47 0.47 0.47 0.46 0.45 0.44 0.45 0.48 0.49 0.47 0.52 0.58 0.63 0.65 0.65 0.64 0.62 0.60 0.61 0.65 0.69 0.70 0.72 0.75 0.73 0.70 0.70 0.71 0.73 0.73 0.73 0.71 0.68 0.67 0.66 0.65 0.63 0.62
0.42 0.43 0.45 0.46 0.46 0.46 0.45 0.43 0.41 0.41 0.40 0.41 0.43 0.46 0.48 0.48 0.47 0.52 0.58 0.60 0.61 0.62 0.62 0.65 0.72 0.74 0.71 0.68 0.67 0.69 0.72 0.73 0.70 0.68 0.68 0.67 0.65 0.64 0.63 0.63 0.61 0.60
0.41 0.43 0.45 0.46 0.46 0.46 0.46 0.45 0.47 0.47 0.47 0.48 0.48 0.48 0.45 0.43 0.44 0.47 0.50 0.53 0.57 0.59 0.61 0.62 0.66 0.69 0.66 0.66 0.68 0.69 0.70 0.69 0.67 0.64 0.63 0.63 0.63 0.62 0.60 0.59 0.58 0.56
0.40 0.40 0.41 0.42 0.43 0.43 0.43 0.43 0.42 0.43 0.44 0.45 0.44 0.46 0.47 0.48 0.49 0.48 0.51 0.53 0.53 0.55 0.59 0.61 0.64 0.65 0.65 0.67 0.68 0.69 0.68 0.65 0.65 0.64 0.61 0.59 0.58 0.58 0.58 0.57 0.56 0.54
0.42 0.42 0.41 0.42 0.42 0.41 0.41 0.43 0.44 0.45 0.45 0.47 0.45 0.46 0.48 0.50 0.51 0.53 0.53 0.55 0.56 0.58 0.59 0.58 0.59 0.61 0.63 0.65 0.66 0.67 0.67 0.65 0.64 0.61 0.58 0.57 0.57 0.57 0.57 0.55 0.53 0.51
0.41 0.41 0.42 0.42 0.42 0.42 0.43 0.43 0.43 0.44 0.44 0.46 0.46 0.46 0.46 0.49 0.49 0.50 0.54 0.56 0.58 0.59 0.57 0.57 0.58 0.60 0.61 0.62 0.63 0.66 0.66 0.65 0.62 0.56 0.52 0.50 0.48 0.47 0.47 0.46 0.46 0.46
0.42 0.42 0.43 0.43 0.44 0.47 0.49 0.50 0.51 0.50 0.50 0.49 0.49 0.50 0.50 0.50 0.56 0.54 0.53 0.53 0.54 0.56 0.57 0.57 0.57 0.56 0.57 0.59 0.61 0.62 0.62 0.60 0.55 0.48 0.44 0.44 0.46 0.46 0.45 0.45 0.45 0.46
Wind_Speed
14 14 13 12 11 10 10 10 10 9 9 9 9 9 9 9 8 8 8 7 7 7 6 6 6 6 7 6 7 7 7 7 7 8 8 8 8 8 8 9 9 9
15 14 14 13 12 11 11 11 10 10 10 10 10 10 10 10 9 9 8 8 8 7 7 6 6 7 7 7 7 7 7 7 7 7 7 7 7 7 8 8 8 9
16 15 14 14 13 13 13 12 12 11 11 11 10 10 11 11 10 10 9 9 9 8 8 7 7 7 7 7 7 7 7 7 7 7 7 7 7 7 7 7 8 8
17 16 15 15 14 14 14 14 13 13 12 12 12 12 12 12 12 11 11 10 10 10 9 9 8 8 8 8 8 8 8 8 7 7 7 7 7 7 7 7 7 8
18 17 16 16 15 15 15 14 14 14 13 13 13 13 13 13 13 13 12 12 12 11 11 11 10 10 10 9 9 9 9 9 8 8 8 8 8 8 8 8 8 8
19 18 17 17 16 16 16 15 15 15 15 14 14 14 14 14 14 14 14 13 13 13 13 12 12 12 11 11 10 10 10 10 10 9 9 9 9 9 9 9 9 9
19 18 18 17 17 18 17 17 17 16 16 16 16 16 15 15 15 15 15 15 15 15 14 14 14 13 13 13 12 12 12 12 11 11 11 11 11 10 10 10 10 10
19 19 19 19 19 19 19 19 19 19 18 18 17 17 17 16 16 16 16 16 16 16 16 15 15 15 15 14 14 14 13 13 13 13 13 13 12 12 12 12 12 12
21 21 21 21 21 21 21 21 21 21 20 19 19 19 18 18 18 18 17 17 17 17 17 16 16 16 16 16 16 15 15 15 15 15 15 14 14 14 14 14 14 14
24 24 24 24 24 23 23 23 24 24 24 22 22 21 20 20 20 20 20 19 19 19 19 18 18 17 17 17 17 17 17 16 16 16 16 16 16 16 16 15 15 15
25 26 25 25 25 25 25 24 24 25 25 25 24 24 23 24 24 23 23 23 22 22 22 21 21 20 19 18 18 18 18 18 18 17 17 17 17 17 17 17 17 17
23 24 24 25 25 25 25 24 25 27 27 26 25 25 25 26 26 26 25 25 24 24 24 23 23 22 22 21 20 19 19 18 19 19 19 19 18 18 18 17 18 18
21 22 23 24 24 24 24 24 25 26 27 26 25 25 26 27 27 28 27 25 25 24 25 26 26 25 24 23 22 21 20 20 20 21 21 20 20 19 19 18 19 19
20 21 22 22 23 24 24 24 24 24 24 25 25 25 26 26 26 27 26 25 25 25 25 26 26 26 24 23 23 23 23 22 22 23 22 22 22 22 21 20 20 20
21 21 22 22 23 23 24 24 24 24 25 25 25 25 25 25 25 26 26 25 25 25 25 24 24 24 24 24 24 24 24 24 24 24 24 24 24 24 23 23 22 22
23 23 23 24 24 25 25 25 26 26 26 26 26 26 26 27 27 27 27 27 27 27 27 27 26 25 26 26 26 26 26 26 26 26 25 25 25 26 25 25 25 25
25 25 25 25 26 26 26 27 27 28 28 28 28 28 28 28 29 29 29 29 30 30 30 30 30 29 29 30 29 29 29 28 28 28 27 27 27 27 27 26 27 27
27 27 27 27 27 27 27 27 28 28 29 30 30 30 30 30 30 31 31 31 32 32 32 33 33 33 33 32 32 31 31 31 31 30 30 29 28 28 28 28 29 29
28 29 29 28 28 28 28 28 28 29 29 30 30 31 31 31 32 32 33 33 33 33 34 34 34 35 35 34 34 33 32 32 32 32 31 31 30 30 31 31 31 31
29 29 30 29 29 29 29 30 30 30 30 30 31 31 31 32 32 33 33 34 34 34 35 35 35 35 35 34 34 33 33 33 33 33 33 32 32 32 33 33 33 33
29 30 30 30 30 30 31 31 31 31 31 31 31 32 32 32 33 33 33 34 34 35 35 35 35 35 34 34 33 33 33 33 34 34 34 33 33 34 34 34 34 34
30 30 30 30 31 31 31 32 32 32 32 32 32 32 32 33 33 34 34 34 35 35 35 35 35 35 34 34 33 32 33 33 34 34 34 34 34 34 35 35 34 35
30 30 31 31 31 32 32 32 32 33 33 33 33 33 33 34 34 34 35 35 35 35 35 35 35 34 34 33 33 32 32 33 33 33 33 34 34 35 35 35 35 35
30 30 31 31 32 32 32 33 33 33 33 33 33 34 34 34 34 35 35 36 36 35 34 34 34 33 33 33 32 32 32 32 32 33 33 33 34 34 34 34 34 35
30 31 31 32 32 33 33 33 33 33 33 34 34 34 34 34 35 35 35 34 34 34 34 33 33 33 33 32 32 32 32 32 32 32 32 33 33 33 33 33 33 34
31 32 32 33 33 33 33 34 34 34 34 34 34 34 34 35 34 34 34 34 34 33 33 33 33 33 32 32 31 31 31 32 32 32 32 33 33 33 33 33 34 34
Wind_Direction
246 249 252 252 252 254 255 255 257 260 261 260 261 264 267 270 272 273 275 276 277 280 279 278 277 274 273 271 269 270 272 273 275 275 275 273 272 272 271 272 270 268
244 247 250 251 252 253 255 255 256 258 260 260 261 263 264 266 268 269 271 273 273 276 276 276 277 274 272 271 269 270 271 270 272 273 273 273 273 273 273 272 272 271
241 244 248 251 252 254 255 256 257 258 258 259 260 262 262 263 265 266 267 268 269 271 271 272 273 274 273 272 271 270 271 271 271 272 273 274 274 273 273 272 273 273
240 243 247 250 253 255 256 256 257 257 258 258 258 260 260 260 262 264 264 265 265 266 268 268 269 270 271 271 270 270 270 272 272 273 274 274 274 274 274 273 274 274
239 243 247 250 253 256 256 255 255 256 257 258 258 258 258 258 258 261 262 262 262 263 264 266 267 267 267 268 268 267 268 270 269 270 273 274 274 275 274 274 274 273
240 244 246 249 251 254 256 255 255 256 257 259 260 258 258 257 257 259 260 261 262 262 261 263 264 265 265 266 265 265 266 267 267 267 269 271 272 272 273 273 273 272
240 242 244 248 251 253 255 255 256 257 258 260 261 260 259 257 256 257 259 260 261 262 262 261 262 262 263 264 264 263 263 264 265 266 267 267 268 269 271 271 271 271
240 241 245 250 254 255 255 256 257 258 259 260 260 260 260 258 257 257 258 259 259 261 262 262 262 262 262 262 263 263 263 263 263 265 266 265 265 267 269 270 271 272
244 246 250 253 255 256 256 257 258 258 259 260 259 259 260 259 258 257 257 258 258 259 260 261 262 262 262 262 263 263 264 263 263 265 266 265 264 266 268 268 270 272
250 252 256 257 256 256 258 259 260 259 258 259 258 258 258 258 257 258 258 258 258 259 260 260 260 260 260 261 262 263 263 263 263 265 267 266 266 267 268 266 266 270
254 256 258 259 259 258 259 261 260 259 257 258 259 259 259 259 258 259 259 259 259 259 259 259 259 259 259 259 260 261 261 262 263 264 266 267 267 267 268 266 265 267
253 255 257 259 260 260 260 260 261 261 258 257 258 259 261 262 261 261 261 261 260 260 260 260 259 258 258 258 259 261 261 261 262 263 265 267 266 267 267 265 265 267
254 256 257 259 259 260 261 262 263 263 258 256 259 260 261 262 262 264 266 264 263 263 263 262 260 258 258 258 259 260 261 261 262 263 265 266 266 265 265 265 266 268
257 258 259 260 260 261 262 263 264 263 259 259 264 264 263 263 262 263 265 265 264 264 266 266 263 260 260 260 260 261 262 262 263 264 265 265 265 265 265 265 267 269
260 260 261 262 262 262 262 263 263 263 262 264 267 266 265 264 263 262 263 264 264 264 265 267 267 265 262 262 262 262 263 264 265 265 265 265 264 264 264 265 267 269
262 263 263 263 264 264 264 263 263 264 265 266 267 268 266 265 264 263 263 263 264 264 264 265 267 268 265 264 265 265 265 266 265 264 265 265 265 265 265 266 268 270
264 264 265 265 265 265 265 265 265 265 265 265 266 267 267 266 265 264 264 265 265 265 264 264 265 267 266 266 266 265 266 267 266 265 265 266 266 265 266 267 269 271
264 265 265 265 265 265 265 266 266 266 266 266 266 266 266 266 265 265 265 266 266 265 265 265 266 266 267 267 266 265 266 267 266 265 266 266 265 266 267 268 269 271
265 265 265 265 265 265 266 266 266 266 267 267 267 267 267 266 265 265 265 265 266 266 266 266 267 267 267 267 265 265 266 266 266 266 265 264 265 266 267 269 270 271
266 266 265 265 265 266 266 266 267 267 267 267 268 268 268 268 267 267 266 266 266 267 268 268 268 267 267 267 266 265 265 265 265 265 264 264 265 267 268 269 270 271
267 266 266 265 266 266 266 266 266 267 267 267 267 268 268 269 269 269 268 268 268 268 269 269 269 268 267 267 266 265 264 265 265 264 264 265 266 267 268 268 269 271
268 267 267 266 266 266 266 266 267 267 267 267 268 268 268 269 269 269 270 269 269 269 269 269 269 269 268 267 266 265 265 265 265 264 264 265 266 267 268 269 270 271
269 269 268 267 267 266 266 267 267 267 268 268 268 269 269 270 270 270 270 270 269 269 269 269 269 269 268 267 266 265 265 265 264 264 265 266 267 267 268 269 270 271
270 270 269 268 267 267 267 267 267 267 267 268 268 269 269 270 270 271 271 271 270 268 268 268 269 268 267 266 266 265 265 265 265 266 267 268 268 269 269 270 271 272
271 270 269 268 268 267 267 267 267 267 267 268 268 268 269 270 270 270 271 271 270 269 268 268 267 267 267 266 266 266 266 266 267 268 268 268 269 269 270 271 272 272
270 270 269 269 268 268 268 267 268 268 268 268 268 269 269 270 270 270 270 270 270 270 269 268 267 266 266 266 266 266 266 267 268 269 268 268 268 269 269 271 273 274